カタログに戻る

FENGYUN 1C DEB

LostSSO
NORAD 36691·DEBRIS·🇨🇳 China

打ち上げ May 10, 1999 から Taiyuan Satellite Launch Center

Loading…

次のパス (今後24時間)

TLE

古いSource: Space-Track

元期: Jan 2, 2026, 15:05 UTC

1 36691U 99025DZM 26002.62869803  .00006879  00000-0  38245-2 0  9996
2 36691  98.6510   6.8744 0126439 176.6472 183.5574 14.07373728599034

AllMySatでFENGYUN 1C DEBをリアルタイム追跡

Download on the App Store